EHI
0 0 0 0 0 0 0 0 0 0 0 0 0 0 0 0 0 0 0 0 0 0 0 0 0 0 0 0 0 0 0 0 0 0 0 0 0 0 0 0 0 0 0
0 0 0 0 0 0 0 0 0 0 0 0 0 0 0 0 0 0 0 0 0 0 0 0 0 0 0 0 0 0 0 0 0 0 0 0 0 0 0 0 0 0 0
0 0 0 0 0 0 0 0 0 0 0 0 0 0 0 0 0 0 0 0 0 0 0 0 0 0 0 0 0 0 0 0 0 0 0 0 0 0 0 0 0 0 0
0 0 0 0 0 0 0 0 0 0 0 0 0 0 0 0 0 0 0 0 0 0 0 0 0 0 0 0 0 0 0 0 0 0 0 0 0 0 0 0 0 0 0
0 0 0 0 0 0 0 0 0 0 0 0 0 0 0 0 0 0 0 0 0 0 0 0 0 0 0 0 0 0 0 0 0 0 0 0 0 0 0 0 0 0 0
0 0 0 0 0 0 0 0 0 0 0 0 0 0 0 0 0 0 0 0 0 0 0 0 0 0 0 0 0 0 0 0 0 0 0 0 0 0 0 0 0 0 0
0 0 0 0 0 0 0 0 0 0 0 0 0 0 0 0 0 0 0 0 0 0 0 0 0 0 0 0 0 0 0 0 0 0 0 0 0 0 0 0 0 0 0
0 0 0 0 0 0 0 0 0 0 0 0 0 0 0 0 0 0 0 0 0 0 0 0 0 0 0 0 0 0 0 0 0 0 0 0 0 0 0 0 0 0 0
0 0 0 0 0 0 0 0 0 0 0 0 0 0 0 0 0 0 0 0 0 0 0 0 0 0 0 0 0 0 0 0 0 0 0 0 0 0 0 0 0 0 0
0 0 0 0 0 0 0 0 0 0 0 0 0 0 0 0 0 0 0 0 0 0 0 0 0 0 0 0 0 0 0 0 0 0 0 0 0 0 0 0 0 0 0
0 0 0 0 0 0 0 0 0 0 0 0 0 0 0 0 0 0 0 0 0 0 0 0 0 0 0 0 0 0 0 0 0 0 0 0 0 0 0 0 0 0 0
0 0 0 0 0 0 0 0 0 0 0 0 0 0 0 0 0 0 0 0 0 0 0 0 0 0 0 0 0 0 0 0 0 0 0 0 0 0 0 0 0 0 0
0 0 0 0 0 0 0 0 0 0 0 0 0 0 0 0 0 0 0 0 0 0 0 0 0 0 0 0 0 0 0 0 0 0 0 0 0 0 0 0 0 0 0
0 0 0 0 0 0 0 0 0 0 0 0 0 0 0 0 0 0 0 0 0 0 0 0 0 0 0 0 0 0 0 0 0 0 0 0 0 0 0 0 0 0 0
0 0 0 0 0 0 0 0 0 0 0 0 0 0 0 0 0 0 0 0 0 0 0 0 0 0 0 0 0 0 0 0 0 0 0 0 0 0 0 0 0 0 0
0 0 0 0 0 0 0 0 0 0 0 0 0 0 0 0 0 0 0 0 0 0 0 0 0 0 0 0 0 0 0 0 0 0 0 0 0 0 0 0 0 0 0
0 0 0 0 0 0 0 0 0 0 0 0 0 0 0 0 0 0 0 0 0 0 0 0 0 0 0 0 0 0 0 0 0 0 0 0 0 0 0 0 0 0 0
0 0 0 0 0 0 0 0 0 0 0 0 0 0 0 0 0 0 0 0 0 0 0 0 0 0 0 0 0 0 0 0 0 0 0 0 0 0 0 0 0 0 0
0 0 0 0 0 0 0 0 0 0 0 0 0 0 0 0 0 0 0 0 0 0 0 0 0 0 0 0 0 0 0 0 0 0 0 0 0 0 0 0 0 0 0
0 0 0 0 0 0 0 0 0 0 0 0 0 0 0 0 0 0 0 0 0 0 0 0 0 0 0 0 0 0 0 0 0 0 0 0 0 0 0 0 0 0 0
0 0 0 0 0 0 0 0 0 0 0 0 0 0 0 0 0 0 0 0 0 0 0 0 0 0 0 0 0 0 0 0 0 0 0 0 0 0 0 0 0 0 0
0 0 0 0 0 0 0 0 0 0 0 0 0 0 0 0 0 0 0 0 0 0 0 0 0 0 0 0 0 0 0 0 0 0 0 0 0 0 0 0 0 0 0
0 0 0 0 0 0 0 0 0 0 0 0 0 0 0 0 0 0 0 0 0 0 0 0 0 0 0 0 0 0 0 0 0 0 0 0 0 0 0 0 0 0 0
0 0 0 0 0 0 0 0 0 0 0 0 0 0 0 0 0 0 0 0 0 0 0 0 0 0 0 0 0 0 0 0 0 0 0 0 0 0 0 0 0 0 0
0 0 0 0 0 0 0 0 0 0 0 0 0 0 0 0 0 0 0 0 0 0 0 0 0 0 0 0 0 0 0 0 0 0 0 0 0 0 0 0 0 0 0
0 0 0 0 0 0 0 0 0 0 0 0 0 0 0 0 0 0 0 0 0 0 0 0 0 0 0 0 0 0 0 0 0 0 0 0 0 0 0 0 0 0 0
Wind_Speed
11 13 20 18 16 14 13 12 11 11 11 11 11 11 12 12 13 13 14 14 15 15 16 17 17 18 19 19 20 20 20 20 19 19 20 22 22 23 23 22 20 14 23
14 15 21 19 17 15 14 13 12 11 11 11 11 11 11 11 12 12 13 14 14 14 15 16 16 17 18 18 18 19 18 18 18 19 19 18 20 22 22 22 22 16 22
16 16 18 20 18 16 15 14 13 12 11 11 10 10 10 11 11 11 12 13 13 13 14 15 15 16 16 17 17 17 17 17 17 18 17 10 11 21 21 21 21 21 21
16 16 15 20 19 17 16 15 13 12 12 11 10 10 10 10 10 11 11 11 12 12 13 13 14 14 15 16 16 16 15 15 16 16 8 8 9 18 20 20 20 20 21
14 15 16 22 20 18 17 15 14 13 12 11 11 10 9 9 9 10 10 10 10 11 11 12 12 13 14 14 15 15 14 14 15 11 6 7 7 16 19 19 20 20 20
13 14 16 22 20 19 18 16 15 14 13 12 11 10 9 9 9 9 9 9 9 9 10 11 11 12 12 13 13 14 13 12 10 4 5 6 6 15 18 18 19 19 19
12 13 16 22 21 19 18 17 16 14 13 12 11 10 9 9 8 8 8 8 8 8 9 9 10 10 11 11 12 12 12 11 6 4 5 5 8 17 17 18 18 19 19
11 14 16 21 21 20 19 18 16 15 14 13 12 11 10 9 8 8 7 7 6 7 7 7 8 8 9 10 11 11 11 10 8 6 4 5 13 16 17 17 18 18 19
10 12 13 12 15 19 19 18 17 16 15 14 12 11 10 9 8 7 7 6 5 5 5 5 6 6 7 8 9 9 9 9 5 3 6 4 13 16 16 17 17 18 18
9 10 13 11 10 10 11 18 18 17 16 15 13 12 11 9 8 7 6 6 5 4 3 3 4 4 4 5 7 8 7 7 4 4 3 6 14 15 15 16 16 17 17
10 9 12 13 11 10 9 14 15 16 16 15 12 13 10 5 5 5 6 7 5 4 3 2 1 2 2 2 3 5 5 2 3 2 1 9 13 14 15 15 15 16 16
13 12 10 13 13 12 11 9 7 7 8 7 6 7 5 5 5 7 9 8 7 5 4 4 3 3 3 1 2 3 1 3 2 2 3 10 12 13 14 14 14 15 15
13 12 11 10 12 12 8 8 6 5 6 7 9 9 6 5 4 4 4 4 4 6 4 5 4 3 2 1 1 1 1 1 1 1 3 9 11 12 13 13 14 14 15
12 14 12 11 9 10 8 7 7 6 7 7 8 11 7 4 4 4 4 5 5 4 4 3 3 4 3 2 2 1 1 1 1 1 3 8 10 11 12 13 13 13 14
15 15 13 12 11 9 8 6 7 6 7 7 6 8 8 5 5 5 4 4 5 4 5 4 4 4 3 3 2 2 2 3 2 2 2 8 10 11 12 12 13 13 14
16 16 14 14 12 10 9 8 6 6 6 6 6 7 9 6 6 6 5 5 5 5 5 5 5 4 3 3 3 3 3 3 3 3 3 5 10 12 12 12 13 13 14
15 15 16 14 13 12 11 9 7 6 7 6 7 8 9 8 8 6 6 5 5 5 5 4 4 3 3 3 4 5 4 4 4 4 4 3 4 9 13 13 13 14 14
12 14 16 14 14 13 11 9 7 7 7 7 7 8 10 10 9 7 6 6 6 5 5 5 4 4 4 4 4 4 4 4 5 5 5 4 4 4 8 13 14 15 15
13 13 14 14 14 13 11 9 8 7 8 7 7 7 10 11 10 8 7 6 7 6 5 6 5 5 5 5 4 4 4 4 5 6 6 6 6 5 5 10 15 16 16
13 12 13 13 13 11 9 7 7 8 7 7 8 9 10 11 12 9 7 8 8 6 6 6 6 6 5 4 4 4 4 5 5 6 7 6 5 7 6 7 6 9 17
12 12 13 14 13 11 10 10 11 10 8 7 8 10 12 12 13 11 9 9 9 9 9 9 7 7 6 4 2 3 5 8 9 7 6 6 6 7 6 7 5 5 7
11 11 12 13 13 12 10 9 7 6 6 6 6 9 12 13 13 13 12 10 10 9 10 11 8 6 6 7 5 3 3 4 7 9 6 6 7 6 7 9 7 7 6
9 11 10 12 13 13 10 6 5 5 5 7 9 10 11 13 14 13 14 12 11 11 11 13 11 12 9 8 7 6 5 7 3 3 7 7 6 6 6 6 8 8 9
8 8 10 10 11 11 11 10 11 11 13 13 8 8 10 12 13 14 14 14 12 11 12 13 13 10 9 7 7 7 5 5 4 3 3 5 7 7 7 8 8 8 9
5 7 8 9 9 10 11 12 11 12 11 6 7 9 11 11 13 14 14 14 14 12 12 12 13 13 11 10 8 6 6 5 4 5 5 4 4 5 7 7 7 7 8
2 4 6 7 8 9 11 12 13 14 10 9 10 10 9 9 10 14 14 14 14 12 13 12 12 14 13 12 10 8 7 6 8 8 9 6 6 5 6 6 6 6 7
Wind_Direction
140 150 153 150 148 143 138 131 124 117 110 104 97 92 87 83 79 75 71 68 63 59 57 56 55 54 54 53 49 46 45 45 46 46 41 40 44 46 44 42 42 34 37
140 150 155 153 151 148 143 137 131 125 119 111 104 98 92 87 83 78 74 70 65 62 58 56 55 54 53 52 50 47 45 44 45 46 41 28 34 43 43 41 39 37 36
143 149 156 155 154 151 148 143 139 134 127 119 112 105 99 93 87 82 77 73 68 64 60 57 55 54 52 50 49 47 45 44 46 47 37 15 16 39 40 39 37 36 34
147 149 157 158 156 155 153 150 146 141 135 128 121 113 106 100 93 87 81 77 72 67 63 58 55 53 52 49 47 46 45 46 49 48 31 12 4 34 38 36 35 34 32
148 152 160 160 159 159 158 156 152 148 142 137 130 123 115 108 100 93 87 81 75 70 66 61 55 52 50 48 45 43 43 47 51 43 25 11 354 28 34 33 31 30 30
151 150 157 162 163 163 162 160 158 155 150 145 140 133 125 116 108 100 93 86 79 73 67 62 55 50 48 45 42 40 39 48 56 42 33 13 349 23 29 29 27 26 25
154 148 158 166 166 167 166 165 163 161 157 153 149 143 135 127 120 112 103 94 84 76 69 63 56 48 44 41 38 35 32 38 69 54 45 10 1 22 24 24 22 21 21
154 148 159 170 170 170 171 170 169 167 164 161 158 152 147 141 134 128 119 107 94 83 73 64 55 45 39 36 34 30 28 31 46 38 51 12 11 17 19 19 17 16 15
156 151 157 171 172 174 175 175 174 172 170 167 165 161 156 153 149 142 135 124 109 95 81 67 53 42 32 30 28 25 23 27 50 37 37 5 9 12 14 13 12 10 10
161 158 158 170 171 172 175 180 178 177 176 174 171 167 165 164 160 158 152 146 135 120 102 78 50 30 21 19 20 17 17 23 34 49 41 358 7 7 8 8 6 5 4
173 171 164 172 173 172 174 184 181 180 180 177 173 174 169 166 167 175 168 164 162 158 150 127 39 336 316 313 356 2 14 9 20 43 52 360 2 1 1 1 360 358 357
184 181 176 176 174 174 180 175 171 175 173 166 158 165 173 194 181 171 168 176 182 188 197 203 234 257 280 324 333 343 9 5 13 10 1 354 353 353 353 353 352 351 350
185 182 184 184 174 174 173 165 172 173 167 175 171 168 185 189 154 151 151 176 190 202 212 211 232 228 238 176 251 296 359 354 336 350 338 336 341 342 343 343 343 342 342
186 188 185 185 176 173 169 167 172 175 172 179 180 171 177 175 168 172 175 175 184 191 197 199 213 210 217 228 227 264 294 285 286 296 296 319 326 329 330 331 332 332 332
191 189 189 185 181 174 169 173 176 175 171 173 175 175 172 173 179 179 185 182 185 185 181 202 214 210 209 227 235 241 257 270 272 277 290 302 308 313 315 318 320 321 322
193 189 188 189 184 178 178 178 179 175 169 172 174 181 178 176 180 181 185 186 188 187 186 193 207 203 209 211 230 244 247 253 254 260 256 285 294 298 301 304 307 309 310
192 188 187 189 187 183 184 183 182 180 175 180 178 184 186 185 183 181 185 186 190 187 187 192 212 201 213 216 225 235 236 237 245 254 257 245 264 281 287 291 293 296 299
190 186 186 189 191 189 187 187 186 186 185 185 182 184 190 192 187 182 186 190 186 182 182 186 200 196 211 214 222 231 229 228 236 243 242 237 230 245 269 279 285 287 291
192 184 184 185 189 190 187 186 191 192 194 189 186 187 191 193 191 187 189 191 184 183 185 195 196 194 204 211 217 226 227 229 234 244 240 235 228 225 225 261 272 280 285
187 183 182 183 186 186 185 187 194 206 203 195 192 192 190 193 193 191 193 193 186 185 189 194 196 195 200 200 222 236 232 231 232 232 234 235 228 226 226 232 248 269 275
178 182 183 185 187 186 190 195 199 206 205 202 198 195 194 193 194 195 198 197 194 194 195 192 188 196 202 182 195 263 257 237 233 228 220 219 223 224 221 222 220 224 253
178 185 187 188 189 193 198 198 198 198 204 207 205 204 199 197 196 200 201 200 199 197 197 196 190 188 195 183 171 186 270 273 237 226 211 213 219 218 221 227 221 222 226
183 189 193 192 191 193 190 181 187 194 204 210 210 211 207 202 202 203 204 202 202 200 204 201 194 191 198 196 183 169 190 226 262 245 217 217 216 216 219 221 225 226 228
195 190 193 192 193 190 187 194 196 204 214 215 211 210 209 209 208 207 205 205 206 206 207 205 202 197 187 195 200 206 196 171 176 257 273 231 221 223 224 233 235 228 227
193 188 191 194 198 193 195 200 207 218 224 220 213 214 213 213 214 212 209 208 211 211 210 207 204 201 201 199 192 182 207 216 189 189 239 245 240 231 226 227 229 228 228
183 182 186 197 208 202 201 205 211 221 222 221 221 220 217 215 215 215 212 212 214 214 213 210 208 207 206 206 204 193 179 183 197 199 217 224 231 234 232 230 229 229 231